When you browse on this site, cookies collect data to enhance your experience and personalize the content and advertising you see.
Visit our Privacy Policy to learn more. By continuing to use the site, you agree to this use of cookies and data.
  • In Hungary
  • List of Countries
  • For 7 days
  • Water Temperature
  • Satellite Maps
  • Weather Map
  • News
  • Weather Widgets
  • user-avatar
    Login

    Hourly Weather Lielvarde

    Today, 17 June, Monday

    Time Temperature Precipitation Wind Pressure Humidity
    00:00 +18°C° 0.1 mm 1 mps 757 mmHg 84%
    01:00 +18°C° 0.1 mm 1 mps 757 mmHg 87%
    02:00 +18°C° 0.1 mm 1 mps 757 mmHg 90%
    03:00 +16°C° 0.1 mm 1 mps 757 mmHg 91%
    04:00 +16°C° 0.1 mm 1 mps 757 mmHg 92%
    05:00 +16°C° 0.1 mm 1 mps 756 mmHg 93%
    06:00 +18°C° 0.1 mm 1 mps 757 mmHg 92%
    07:00 +18°C° 0.1 mm 1 mps 757 mmHg 91%
    08:00 +19°C° 0.1 mm 1 mps 757 mmHg 90%
    09:00 +17°C° 0.2 mm 2 mps 757 mmHg 91%
    10:00 +17°C° 0.2 mm 2 mps 757 mmHg 92%
    11:00 +17°C° 0.2 mm 2 mps 758 mmHg 93%
    12:00 +17°C° 0.1 mm 2 mps 758 mmHg 91%
    13:00 +17°C° 0.1 mm 3 mps 758 mmHg 89%
    14:00 +18°C° 0.1 mm 3 mps 758 mmHg 87%
    15:00 +18°C° 0 mm 3 mps 758 mmHg 80%
    16:00 +19°C° 0 mm 3 mps 758 mmHg 74%
    17:00 +20°C° 0 mm 3 mps 758 mmHg 68%
    18:00 +19°C° 0 mm 3 mps 758 mmHg 69%
    19:00 +18°C° 0 mm 3 mps 759 mmHg 69%
    20:00 +17°C° 0 mm 3 mps 759 mmHg 70%
    21:00 +16°C° 0 mm 2 mps 759 mmHg 73%
    22:00 +14°C° 0 mm 2 mps 759 mmHg 75%
    23:00 +12°C° 0 mm 1 mps 760 mmHg 77%

    Tomorrow, 18 June, Tuesday

    Time Temperature Precipitation Wind Pressure Humidity
    00:00 +12°C° 0 mm 1 mps 760 mmHg 83%
    01:00 +11°C° 0 mm 1 mps 760 mmHg 88%
    02:00 +11°C° 0 mm 1 mps 760 mmHg 93%
    03:00 +11°C° 0 mm 1 mps 760 mmHg 92%
    04:00 +12°C° 0 mm 1 mps 760 mmHg 92%
    05:00 +12°C° 0 mm 1 mps 760 mmHg 92%
    06:00 +14°C° 0 mm 1 mps 760 mmHg 83%
    07:00 +18°C° 0 mm 1 mps 761 mmHg 75%
    08:00 +20°C° 0 mm 1 mps 761 mmHg 66%
    09:00 +21°C° 0 mm 2 mps 761 mmHg 60%
    10:00 +23°C° 0 mm 2 mps 761 mmHg 54%
    11:00 +25°C° 0 mm 2 mps 761 mmHg 48%
    12:00 +25°C° 0 mm 2 mps 761 mmHg 46%
    13:00 +26°C° 0 mm 3 mps 761 mmHg 45%
    14:00 +26°C° 0 mm 3 mps 760 mmHg 43%
    15:00 +26°C° 0 mm 3 mps 760 mmHg 46%
    16:00 +26°C° 0 mm 2 mps 760 mmHg 48%
    17:00 +26°C° 0 mm 2 mps 760 mmHg 51%
    18:00 +24°C° 0 mm 2 mps 760 mmHg 59%
    19:00 +22°C° 0 mm 1 mps 760 mmHg 67%
    20:00 +20°C° 0 mm 1 mps 760 mmHg 76%
    21:00 +19°C° 0 mm 1 mps 760 mmHg 78%
    22:00 +18°C° 0 mm 1 mps 760 mmHg 79%
    23:00 +15°C° 0 mm 1 mps 761 mmHg 81%

    Day after tomorrow, 19 June, Wednesday

    Time Temperature Precipitation Wind Pressure Humidity
    00:00 +15°C° 0 mm 1 mps 760 mmHg 82%
    01:00 +15°C° 0 mm 1 mps 760 mmHg 83%
    02:00 +15°C° 0 mm 1 mps 760 mmHg 83%
    03:00 +15°C° 0 mm 1 mps 760 mmHg 85%
    04:00 +15°C° 0 mm 1 mps 760 mmHg 87%
    05:00 +15°C° 0 mm 1 mps 760 mmHg 90%
    06:00 +18°C° 0 mm 1 mps 760 mmHg 83%
    07:00 +21°C° 0 mm 1 mps 760 mmHg 76%
    08:00 +23°C° 0 mm 2 mps 760 mmHg 69%
    09:00 +24°C° 0 mm 2 mps 760 mmHg 63%
    10:00 +25°C° 0 mm 2 mps 760 mmHg 57%
    11:00 +26°C° 0 mm 3 mps 760 mmHg 51%
    12:00 +27°C° 0 mm 3 mps 759 mmHg 49%
    13:00 +27°C° 0 mm 3 mps 759 mmHg 48%
    14:00 +28°C° 0 mm 3 mps 758 mmHg 46%
    15:00 +28°C° 0 mm 3 mps 758 mmHg 48%
    16:00 +27°C° 0 mm 3 mps 758 mmHg 49%
    17:00 +27°C° 0 mm 2 mps 757 mmHg 51%
    18:00 +26°C° 0 mm 2 mps 757 mmHg 59%
    19:00 +24°C° 0 mm 1 mps 757 mmHg 68%
    20:00 +21°C° 0 mm 0 mps 757 mmHg 76%
    21:00 +22°C° 0 mm 1 mps 757 mmHg 79%
    22:00 +20°C° 0 mm 1 mps 757 mmHg 82%
    23:00 +18°C° 0 mm 2 mps 757 mmHg 84%

    20 June, Thursday

    Time Temperature Precipitation Wind Pressure Humidity
    00:00 +18°C° 0 mm 2 mps 757 mmHg 82%
    01:00 +18°C° 0 mm 2 mps 757 mmHg 80%
    02:00 +18°C° 0 mm 2 mps 756 mmHg 78%
    03:00 +18°C° 0 mm 2 mps 756 mmHg 78%
    04:00 +18°C° 0 mm 2 mps 756 mmHg 78%
    05:00 +19°C° 0 mm 3 mps 756 mmHg 78%
    06:00 +18°C° 1.1 mm 3 mps 755 mmHg 84%
    07:00 +17°C° 1.1 mm 3 mps 755 mmHg 90%
    08:00 +17°C° 1.1 mm 3 mps 755 mmHg 96%
    09:00 +18°C° 0.7 mm 3 mps 755 mmHg 96%
    10:00 +18°C° 0.7 mm 3 mps 755 mmHg 95%
    11:00 +19°C° 0.7 mm 4 mps 755 mmHg 95%
    12:00 +20°C° 0.5 mm 3 mps 755 mmHg 92%
    13:00 +22°C° 0.5 mm 3 mps 755 mmHg 90%
    14:00 +24°C° 0.5 mm 3 mps 754 mmHg 87%
    15:00 +25°C° 0.9 mm 2 mps 754 mmHg 87%
    16:00 +25°C° 0.9 mm 2 mps 754 mmHg 87%
    17:00 +25°C° 0.9 mm 2 mps 754 mmHg 87%
    18:00 +25°C° 0.4 mm 1 mps 754 mmHg 89%
    19:00 +24°C° 0.4 mm 1 mps 754 mmHg 92%
    20:00 +24°C° 0.4 mm 1 mps 754 mmHg 94%
    21:00 +23°C° 0 mm 1 mps 755 mmHg 95%
    22:00 +22°C° 0 mm 1 mps 755 mmHg 96%
    23:00 +21°C° 0 mm 1 mps 756 mmHg 97%

    21 June, Friday

    Time Temperature Precipitation Wind Pressure Humidity
    00:00 +20°C° 0 mm 1 mps 756 mmHg 97%
    01:00 +20°C° 0 mm 1 mps 756 mmHg 98%
    02:00 +19°C° 0 mm 1 mps 756 mmHg 98%
    03:00 +19°C° 0 mm 1 mps 756 mmHg 97%
    04:00 +19°C° 0 mm 1 mps 757 mmHg 97%
    05:00 +18°C° 0 mm 1 mps 757 mmHg 97%
    06:00 +19°C° 0 mm 1 mps 757 mmHg 91%
    07:00 +20°C° 0 mm 1 mps 757 mmHg 85%
    08:00 +21°C° 0 mm 1 mps 758 mmHg 80%
    09:00 +23°C° 0 mm 1 mps 758 mmHg 71%
    10:00 +24°C° 0 mm 1 mps 758 mmHg 63%
    11:00 +26°C° 0 mm 1 mps 758 mmHg 55%
    12:00 +26°C° 0 mm 1 mps 758 mmHg 55%
    13:00 +26°C° 0 mm 1 mps 758 mmHg 56%
    14:00 +26°C° 0 mm 1 mps 757 mmHg 57%
    15:00 +25°C° 0 mm 1 mps 757 mmHg 62%
    16:00 +23°C° 0 mm 2 mps 757 mmHg 68%
    17:00 +21°C° 0 mm 2 mps 757 mmHg 74%
    18:00 +21°C° 0 mm 2 mps 757 mmHg 75%
    19:00 +21°C° 0 mm 1 mps 757 mmHg 76%
    20:00 +20°C° 0 mm 1 mps 757 mmHg 77%
    21:00 +19°C° 0 mm 1 mps 757 mmHg 80%
    22:00 +18°C° 0 mm 1 mps 757 mmHg 83%
    23:00 +16°C° 0 mm 1 mps 757 mmHg 86%

    22 June, Saturday

    Time Temperature Precipitation Wind Pressure Humidity
    00:00 +16°C° 0 mm 1 mps 757 mmHg 88%
    01:00 +16°C° 0 mm 1 mps 757 mmHg 89%
    02:00 +16°C° 0 mm 1 mps 757 mmHg 91%
    03:00 +16°C° 0 mm 1 mps 757 mmHg 90%
    04:00 +16°C° 0 mm 1 mps 757 mmHg 90%
    05:00 +18°C° 0 mm 1 mps 757 mmHg 89%
    06:00 +20°C° 0 mm 1 mps 757 mmHg 82%
    07:00 +22°C° 0 mm 1 mps 758 mmHg 75%
    08:00 +24°C° 0 mm 1 mps 758 mmHg 68%
    09:00 +25°C° 0 mm 1 mps 757 mmHg 63%
    10:00 +27°C° 0 mm 1 mps 757 mmHg 57%
    11:00 +29°C° 0 mm 1 mps 757 mmHg 52%
    12:00 +29°C° 0 mm 1 mps 757 mmHg 50%
    13:00 +30°C° 0 mm 1 mps 757 mmHg 49%
    14:00 +30°C° 0 mm 1 mps 756 mmHg 47%
    15:00 +29°C° 0.4 mm 1 mps 756 mmHg 58%
    16:00 +27°C° 0.4 mm 2 mps 756 mmHg 68%
    17:00 +26°C° 0.4 mm 2 mps 756 mmHg 78%
    18:00 +24°C° 0.6 mm 2 mps 756 mmHg 83%
    19:00 +23°C° 0.6 mm 1 mps 756 mmHg 88%
    20:00 +21°C° 0.6 mm 1 mps 756 mmHg 93%
    21:00 +21°C° 1.1 mm 1 mps 756 mmHg 94%
    22:00 +19°C° 1.1 mm 2 mps 756 mmHg 96%
    23:00 +19°C° 1.1 mm 2 mps 756 mmHg 97%
    Show more